Retour au catalogue

FENGYUN 1C DEB

ActifPO
NORAD 31879·DEBRIS·🇨🇳 China

Lancé May 10, 1999 depuis Taiyuan Satellite Launch Center

Loading…

Prochains Passages (prochaines 24 heures)

TLE

FraisSource: Space-Track

Époque: Sep 14, 2026, 14:16 UTC

1 31879U 99025CKE 26257.59506429  .00000993  00000-0  24167-3 0  9999
2 31879  99.6851 179.1557 0206804 315.9173  42.5685 14.43623629671893

Suivez FENGYUN 1C DEB en temps réel avec AllMySat

Download on the App Store